Terminal Aerodrome Forecast
Issued by NWS

Home | Current Version | Previous Version | Text Only | Print | Product List | Glossary On
Versions: 1 2 3 4 5 6 7 8 9 10 11 12 13 14 15 16 17 18 19 20 21 22 23 24 25 26
000
FTUS44 KOUN 161122
TAFHBR
TAF
KHBR 161122Z 1612/1712 06008KT P6SM SCT015 BKN070
      TEMPO 1612/1615 OVC015
     FM161900 18010KT P6SM SCT015 BKN050
     FM170100 19007KT P6SM SCT050 BKN250=

USA.gov is the U.S. government's official web portal to all federal, state and local government web resources and services.